Miamisburg, OH

7:34 PM EST on February 24, 2017 (GMT -0500)
Dayton-Wright Brothers

Weather History for KMGY - April, 2013

Change the Weather History Date:

Thursday, April 25, 2013

  Actual Average (KFFO) Record (KFFO)
Temperature  
Mean Temperature 42 °F -  
Max Temperature 57 °F 64 °F 82 °F (2008)
Min Temperature 30 °F 42 °F 31 °F (2013)
Degree Days  
Heating Degree Days 22    
Moisture  
Dew Point 32 °F    
Average Humidity 66    
Maximum Humidity 100    
Minimum Humidity 37    
Precipitation  
Precipitation 0.00 in - - ()
Sea Level Pressure  
Sea Level Pressure 30.28 in    
Wind  
Wind Speed 7 mph (WSW)    
Max Wind Speed 18 mph    
Max Gust Speed 26 mph    
Visibility 9 miles    
Events      
Averages and records for this station are not official NWS values.
T = Trace of Precipitation, MM = Missing Value Source: NWS Daily Summary

Daily Weather History Graph

Daily Weather History Graph

Search for Another Location

Airport or City:

Trip Planner

Search our weather history database for the weather conditions in past years. The results will help you decide how hot, cold, wet, or windy it might be!

Date:

Astronomy

Apr. 25, 2013 Rise Set
Actual Time 6:45 AM EDT 8:25 PM EDT
Civil Twilight 6:16 AM EDT 8:53 PM EDT
Nautical Twilight 5:41 AM EDT 9:28 PM EDT
Astronomical Twilight 5:05 AM EDT 10:05 PM EDT
Moon 8:37 PM EDT 6:27 AM EDT
Length of Visible Light 14h 37m
Length of Day
13h 39m
Full, 100% of the Moon is Illuminated
Apr 25
Full
Apr 25
Full
May 2
Last Quarter
May 9
New
May 18
First Quarter

Hourly Weather History & Observations

Time (EDT) Temp. Windchill Dew Point Humidity Pressure Visibility Wind Dir Wind Speed Gust Speed Precip Events Conditions
12:53 AM 37.0 °F - 34.0 °F 89% 30.23 in 10.0 mi Calm Calm - N/A   Clear
1:53 AM 33.1 °F 28.7 °F 32.0 °F 96% 30.25 in 10.0 mi South 4.6 mph - N/A   Clear
2:53 AM 34.0 °F 29.8 °F 32.0 °F 92% 30.26 in 10.0 mi South 4.6 mph - N/A   Clear
3:53 AM 34.0 °F 31.0 °F 33.1 °F 96% 30.25 in 9.0 mi South 3.5 mph - N/A   Overcast
4:53 AM 34.0 °F - 33.1 °F 96% 30.25 in 9.0 mi Calm Calm - N/A   Clear
5:53 AM 33.1 °F 30.0 °F 32.0 °F 96% 30.27 in 6.0 mi South 3.5 mph - N/A   Clear
6:53 AM 30.9 °F 27.5 °F 30.9 °F 100% 30.28 in 4.0 mi South 3.5 mph - N/A   Clear
7:53 AM 33.1 °F 27.7 °F 33.1 °F 100% 30.27 in 6.0 mi South 5.8 mph - N/A   Clear
8:53 AM 37.9 °F 32.1 °F 36.0 °F 93% 30.27 in 10.0 mi SSW 8.1 mph - N/A   Clear
9:53 AM 44.1 °F 39.0 °F 35.1 °F 71% 30.27 in 10.0 mi SW 9.2 mph - N/A   Clear
10:53 AM 46.9 °F - 32.0 °F 56% 30.27 in 10.0 mi SW 13.8 mph - N/A   Clear
11:53 AM 50.0 °F - 32.0 °F 50% 30.27 in 10.0 mi WSW 12.7 mph 20.7 mph N/A   Clear
12:53 PM 52.0 °F - 34.0 °F 50% 30.26 in 10.0 mi SW 12.7 mph 23.0 mph N/A   Partly Cloudy
1:53 PM 52.0 °F - 33.1 °F 49% 30.26 in 10.0 mi SW 16.1 mph 23.0 mph N/A   Overcast
2:53 PM 54.0 °F - 33.1 °F 45% 30.25 in 10.0 mi WSW 17.3 mph 23.0 mph N/A   Mostly Cloudy
3:53 PM 55.9 °F - 33.1 °F 42% 30.24 in 10.0 mi WSW 13.8 mph 23.0 mph N/A   Mostly Cloudy
4:53 PM 55.9 °F - 33.1 °F 42% 30.24 in 10.0 mi WNW 18.4 mph 23.0 mph N/A   Mostly Cloudy
5:53 PM 55.9 °F - 30.9 °F 39% 30.26 in 10.0 mi WNW 13.8 mph 25.3 mph N/A   Clear
6:53 PM 54.0 °F - 28.0 °F 37% 30.29 in 10.0 mi WNW 15.0 mph 26.5 mph N/A   Clear
7:53 PM 50.0 °F - 28.9 °F 44% 30.32 in 10.0 mi NNW 16.1 mph 20.7 mph N/A   Clear
8:53 PM 46.9 °F - 27.0 °F 46% 30.34 in 10.0 mi NNW 6.9 mph - N/A   Clear
9:53 PM 44.1 °F 41.5 °F 27.0 °F 51% 30.36 in 10.0 mi North 4.6 mph - N/A   Clear
10:53 PM 43.0 °F 40.3 °F 27.0 °F 53% 30.38 in 10.0 mi North 4.6 mph - N/A   Clear
11:53 PM 43.0 °F 41.3 °F 27.0 °F 53% 30.38 in 10.0 mi North 3.5 mph - N/A   Clear